TimeAKDT,TemperatureF,Dew PointF,Humidity,Sea Level PressureIn,VisibilityMPH,Wind Direction,Wind SpeedMPH,Gust SpeedMPH,PrecipitationIn,Events,Conditions,WindDirDegrees,DateUTC
12:16 AM,48.2,30.2,50,30.01,10.0,SW,8.1,-,N/A,,Clear,220,2013-05-22 08:16:00
12:36 AM,50.0,30.2,47,30.01,10.0,SW,6.9,-,N/A,,Clear,230,2013-05-22 08:36:00
12:56 AM,48.2,30.2,50,30.01,10.0,SW,8.1,-,N/A,,Clear,230,2013-05-22 08:56:00
1:16 AM,48.2,30.2,50,30.01,10.0,WSW,6.9,-,N/A,,Clear,250,2013-05-22 09:16:00
1:36 AM,46.4,30.2,53,30.01,10.0,WSW,8.1,-,N/A,,Clear,240,2013-05-22 09:36:00
1:56 AM,44.6,32.0,61,30.01,10.0,WSW,4.6,-,N/A,,Clear,250,2013-05-22 09:56:00
2:16 AM,44.6,30.2,57,30.02,10.0,WSW,4.6,-,N/A,,Clear,240,2013-05-22 10:16:00
2:36 AM,44.6,30.2,57,30.01,10.0,WSW,6.9,-,N/A,,Clear,240,2013-05-22 10:36:00
2:56 AM,44.6,32.0,61,30.01,10.0,WSW,5.8,-,N/A,,Clear,240,2013-05-22 10:56:00
3:16 AM,44.6,32.0,61,30.01,10.0,WSW,5.8,-,N/A,,Clear,250,2013-05-22 11:16:00
3:36 AM,42.8,32.0,66,30.01,10.0,WSW,5.8,-,N/A,,Clear,240,2013-05-22 11:36:00
3:56 AM,42.8,32.0,66,30.00,10.0,WSW,4.6,-,N/A,,Clear,240,2013-05-22 11:56:00
4:16 AM,42.8,32.0,66,30.01,10.0,WSW,5.8,-,N/A,,Clear,240,2013-05-22 12:16:00
4:36 AM,42.8,32.0,66,30.01,10.0,WSW,8.1,-,N/A,,Clear,250,2013-05-22 12:36:00
4:56 AM,42.8,32.0,66,30.01,10.0,SW,6.9,-,N/A,,Clear,230,2013-05-22 12:56:00
5:16 AM,42.8,33.8,70,30.01,10.0,WSW,6.9,-,N/A,,Clear,250,2013-05-22 13:16:00
5:36 AM,42.8,33.8,70,30.01,10.0,WSW,5.8,-,N/A,,Clear,240,2013-05-22 13:36:00
5:56 AM,42.8,33.8,70,30.01,10.0,WSW,5.8,-,N/A,,Clear,250,2013-05-22 13:56:00
6:16 AM,46.4,33.8,62,30.02,10.0,West,5.8,-,N/A,,Clear,260,2013-05-22 14:16:00
6:36 AM,46.4,33.8,62,30.02,10.0,West,3.5,-,N/A,,Clear,260,2013-05-22 14:36:00
6:56 AM,48.2,33.8,58,30.02,10.0,Calm,Calm,-,N/A,,Clear,0,2013-05-22 14:56:00
7:16 AM,50.0,33.8,54,30.02,10.0,Calm,Calm,-,N/A,,Clear,0,2013-05-22 15:16:00
7:36 AM,51.8,33.8,50,30.02,10.0,NE,3.5,-,N/A,,Clear,40,2013-05-22 15:36:00
7:56 AM,51.8,35.6,54,30.02,10.0,Calm,Calm,-,N/A,,Clear,0,2013-05-22 15:56:00
8:36 AM,51.8,35.6,54,30.01,10.0,NE,3.5,-,N/A,,Unknown,50,2013-05-22 16:36:00
8:56 AM,51.8,35.6,54,30.01,10.0,NE,6.9,-,N/A,,Clear,40,2013-05-22 16:56:00
9:16 AM,53.6,35.6,51,30.00,10.0,ENE,6.9,-,N/A,,Clear,60,2013-05-22 17:16:00
9:36 AM,53.6,35.6,51,30.01,10.0,ENE,5.8,-,N/A,,Clear,70,2013-05-22 17:36:00
9:56 AM,55.4,35.6,47,30.01,10.0,NE,5.8,-,N/A,,Clear,50,2013-05-22 17:56:00
10:16 AM,55.4,35.6,47,30.01,10.0,ENE,5.8,-,N/A,,Clear,70,2013-05-22 18:16:00
10:36 AM,55.4,37.4,51,30.01,10.0,East,5.8,-,N/A,,Clear,80,2013-05-22 18:36:00
10:56 AM,55.4,37.4,51,30.01,10.0,East,5.8,-,N/A,,Clear,80,2013-05-22 18:56:00
11:16 AM,57.2,33.8,41,30.01,10.0,East,4.6,-,N/A,,Clear,80,2013-05-22 19:16:00
11:36 AM,57.2,33.8,41,30.01,10.0,ENE,6.9,-,N/A,,Clear,60,2013-05-22 19:36:00
11:56 AM,59.0,33.8,39,30.01,10.0,NE,6.9,-,N/A,,Clear,50,2013-05-22 19:56:00
12:16 PM,60.8,33.8,36,30.00,10.0,East,5.8,-,N/A,,Clear,90,2013-05-22 20:16:00
12:36 PM,60.8,32.0,34,30.01,10.0,ENE,6.9,-,N/A,,Clear,60,2013-05-22 20:36:00
12:56 PM,60.8,33.8,36,30.01,10.0,ENE,5.8,-,N/A,,Clear,60,2013-05-22 20:56:00
1:16 PM,60.8,33.8,36,30.01,10.0,NE,5.8,-,N/A,,Clear,50,2013-05-22 21:16:00
1:36 PM,62.6,33.8,34,30.01,10.0,NE,8.1,-,N/A,,Clear,50,2013-05-22 21:36:00
1:56 PM,60.8,33.8,36,30.01,10.0,ENE,5.8,-,N/A,,Clear,60,2013-05-22 21:56:00
2:16 PM,62.6,33.8,34,30.01,10.0,NNE,6.9,-,N/A,,Clear,30,2013-05-22 22:16:00
2:36 PM,62.6,33.8,34,30.01,10.0,NNE,8.1,-,N/A,,Clear,30,2013-05-22 22:36:00
2:56 PM,60.8,33.8,36,30.01,10.0,NNE,9.2,-,N/A,,Clear,30,2013-05-22 22:56:00
3:16 PM,62.6,33.8,34,30.01,10.0,NNE,10.4,-,N/A,,Clear,30,2013-05-22 23:16:00
3:36 PM,62.6,32.0,32,30.01,10.0,NNE,10.4,-,N/A,,Clear,30,2013-05-22 23:36:00
3:56 PM,62.6,32.0,32,30.01,10.0,NNE,8.1,-,N/A,,Clear,30,2013-05-22 23:56:00
4:16 PM,62.6,33.8,34,30.01,10.0,NNE,9.2,-,N/A,,Clear,30,2013-05-23 00:16:00
4:36 PM,62.6,33.8,34,30.01,10.0,North,9.2,-,N/A,,Clear,10,2013-05-23 00:36:00
4:56 PM,62.6,33.8,34,30.01,10.0,North,9.2,-,N/A,,Clear,10,2013-05-23 00:56:00
5:16 PM,64.4,33.8,32,30.01,10.0,North,8.1,-,N/A,,Clear,10,2013-05-23 01:16:00
5:36 PM,64.4,32.0,30,30.01,10.0,North,9.2,-,N/A,,Clear,10,2013-05-23 01:36:00
5:56 PM,62.6,30.2,30,30.01,10.0,Calm,Calm,-,N/A,,Clear,0,2013-05-23 01:56:00
6:16 PM,62.6,30.2,30,30.01,10.0,West,5.8,-,N/A,,Clear,280,2013-05-23 02:16:00
6:36 PM,62.6,30.2,30,30.01,10.0,West,9.2,-,N/A,,Clear,270,2013-05-23 02:36:00
6:56 PM,62.6,30.2,30,30.01,10.0,WNW,9.2,-,N/A,,Clear,300,2013-05-23 02:56:00
7:16 PM,60.8,30.2,31,30.02,10.0,West,11.5,-,N/A,,Clear,280,2013-05-23 03:16:00
7:36 PM,60.8,30.2,31,30.02,10.0,West,5.8,-,N/A,,Clear,270,2013-05-23 03:36:00
7:56 PM,60.8,30.2,31,30.03,10.0,West,6.9,-,N/A,,Clear,280,2013-05-23 03:56:00
8:16 PM,60.8,30.2,31,30.03,10.0,East,3.5,-,N/A,,Clear,80,2013-05-23 04:16:00
8:36 PM,59.0,30.2,34,30.03,10.0,Calm,Calm,-,N/A,,Clear,0,2013-05-23 04:36:00
8:56 PM,55.4,35.6,47,30.03,10.0,ENE,3.5,-,N/A,,Clear,70,2013-05-23 04:56:00
9:16 PM,53.6,35.6,51,30.04,10.0,SSE,5.8,-,N/A,,Clear,160,2013-05-23 05:16:00
9:36 PM,53.6,33.8,47,30.04,10.0,SE,6.9,-,N/A,,Clear,130,2013-05-23 05:36:00
9:56 PM,51.8,33.8,50,30.04,10.0,ESE,6.9,-,N/A,,Clear,120,2013-05-23 05:56:00
10:16 PM,48.2,33.8,58,30.05,10.0,ESE,4.6,-,N/A,,Clear,120,2013-05-23 06:16:00
10:36 PM,48.2,33.8,58,30.05,10.0,SE,3.5,-,N/A,,Clear,130,2013-05-23 06:36:00
10:56 PM,46.4,33.8,62,30.05,10.0,Calm,Calm,-,N/A,,Clear,0,2013-05-23 06:56:00
11:16 PM,44.6,35.6,71,30.04,10.0,South,3.5,-,N/A,,Clear,190,2013-05-23 07:16:00
11:36 PM,44.6,33.8,66,30.04,10.0,Calm,Calm,-,N/A,,Clear,0,2013-05-23 07:36:00
11:56 PM,44.6,35.6,71,30.03,10.0,Calm,Calm,-,N/A,,Clear,0,2013-05-23 07:56:00